Alice Springs, Australia

10:58 PM ACST on October 23, 2019 (GMT +0930)
Alice Springs

Weather History for YBAS - August, 2019

Change the Weather History Date:

Thursday, August 29, 2019

  Actual Average Record
Temperature  
Mean Temperature 52 °F -  
Max Temperature 69 °F 80 °F 88 °F (2012)
Min Temperature 34 °F 50 °F 32 °F (2003)
Degree Days  
Heating Degree Days 14    
Growing Degree Days 2 (Base 50)    
Moisture  
Dew Point 16 °F    
Average Humidity 23    
Maximum Humidity 44    
Minimum Humidity 5    
Precipitation  
Precipitation 0.00 in 0.01 in - ()
Sea Level Pressure  
Sea Level Pressure 30.25 in    
Wind  
Wind Speed 6 mph ()    
Max Wind Speed 16 mph    
Max Gust Speed -    
Visibility 6.2 miles    
Events      
Averages and records for this station are not official NWS values.
T = Trace of Precipitation, MM = Missing Value Source: Averaged Metar Reports

Daily Weather History Graph

Daily Weather History Graph

Search for Another Location

Airport or City:

Astronomy

Aug. 29, 2019 Rise Set
Actual Time 6:48 AM ACST 6:22 PM ACST
Civil Twilight 6:26 AM ACST 6:45 PM ACST
Nautical Twilight 5:59 AM ACST 7:11 PM ACST
Astronomical Twilight 5:33 AM ACST 7:37 PM ACST
Moon 5:46 AM ACST (8/29) 5:04 PM ACST (8/29)
Length of Visible Light 12h 19m
Length of Day
11h 33m
Waning Crescent, 3% of the Moon is Illuminated
Aug 29
Waning Crescent
Aug 30
New
Sep 6
First Quarter
Sep 14
Full
Sep 22
Last Quarter

Hourly Weather History & Observations

Time (ACST) Temp. Windchill Dew Point Humidity Pressure Visibility Wind Dir Wind Speed Gust Speed Precip Events Conditions
12:00 AM 42 °F - 13 °F 18% 30.28 in - Calm Calm - -   Clear
12:30 AM 42 °F - 13 °F 18% 30.28 in - West 4.6 mph - -  
12:30 AM 42.8 °F 40.1 °F 12.2 °F 29% 30.30 in 6.2 mi West 4.6 mph - N/A   Unknown
1:00 AM 41.0 °F 37.1 °F 14.0 °F 33% 30.30 in 6.2 mi WNW 5.8 mph - N/A   Unknown
1:30 AM 41.0 °F 38.0 °F 14.0 °F 33% 30.27 in 6.2 mi WNW 4.6 mph - N/A   Unknown
2:00 AM 41.0 °F 39.0 °F 15.8 °F 36% 30.27 in 6.2 mi NNW 3.5 mph - N/A   Unknown
2:30 AM 39 °F - 13 °F 21% 30.26 in - WNW 4.6 mph - -  
2:30 AM 39.2 °F 35.9 °F 12.2 °F 33% 30.27 in 6.2 mi WNW 4.6 mph - N/A   Unknown
3:00 AM 38 °F - 12 °F 21% 30.26 in - WNW 5.8 mph - -   Clear
3:00 AM 39.2 °F 35.0 °F 12.2 °F 33% 30.27 in 6.2 mi WNW 5.8 mph - N/A   Unknown
3:30 AM 38 °F - 12 °F 21% 30.25 in - WNW 4.6 mph - -  
3:30 AM 37.4 °F 33.8 °F 12.2 °F 36% 30.27 in 6.2 mi WNW 4.6 mph - N/A   Unknown
4:00 AM 37.4 °F 32.8 °F 14.0 °F 38% 30.27 in 6.2 mi West 5.8 mph - N/A   Unknown
4:30 AM 37.4 °F 32.8 °F 14.0 °F 38% 30.27 in 6.2 mi WNW 5.8 mph - N/A   Unknown
5:00 AM 37.4 °F 33.8 °F 14.0 °F 38% 30.27 in 6.2 mi WNW 4.6 mph - N/A   Unknown
5:30 AM 36 °F - 14 °F 27% 30.26 in - NW 4.6 mph - -  
5:30 AM 35.6 °F 31.7 °F 14.0 °F 41% 30.27 in 6.2 mi NW 4.6 mph - N/A   Unknown
6:00 AM 35.6 °F 31.7 °F 15.8 °F 44% 30.27 in 6.2 mi West 4.6 mph - N/A   Unknown
6:30 AM 36 °F - 17 °F 31% 30.27 in - West 4.6 mph - -  
6:30 AM 35.6 °F 31.7 °F 15.8 °F 44% 30.27 in 6.2 mi West 4.6 mph - N/A   Unknown
7:00 AM 35.6 °F 31.7 °F 14.0 °F 41% 30.30 in 6.2 mi WNW 4.6 mph - N/A   Unknown
7:30 AM 39.2 °F 35.9 °F 15.8 °F 39% 30.30 in 6.2 mi West 4.6 mph - N/A   Unknown
8:00 AM 44.6 °F - 17.6 °F 34% 30.30 in - West 2.3 mph - N/A   Clear
8:30 AM 49 °F - 19 °F 18% 30.30 in - SW 1.2 mph - -  
8:30 AM 48.2 °F - 19.4 °F 32% 30.30 in - SW 1.2 mph - N/A   Clear
9:00 AM 55.4 °F - 23.0 °F 29% 30.30 in - East 8.1 mph - N/A   Clear
9:30 AM 57 °F - 24 °F 17% 30.31 in - East 12.7 mph - -  
9:30 AM 57.2 °F - 24.8 °F 29% 30.30 in - East 12.7 mph - N/A   Clear
10:00 AM 59.0 °F - 23.0 °F 25% 30.30 in - ENE 13.8 mph - N/A   Clear
10:30 AM 60.8 °F - 23.0 °F 23% 30.30 in - East 13.8 mph - N/A   Clear
11:00 AM 64.4 °F - 24.8 °F 22% 30.30 in - SE 11.5 mph - N/A   Clear
11:30 AM 64 °F - 22 °F 11% 30.27 in - East 15.0 mph - -  
11:30 AM 64.4 °F - 23.0 °F 21% 30.27 in - East 15.0 mph - N/A   Clear
12:00 PM 64 °F - 20 °F 9% 30.26 in - SE 15.0 mph - -   Clear
12:00 PM 64.4 °F - 19.4 °F 18% 30.27 in - SE 15.0 mph - N/A   Clear
12:30 PM 66.2 °F - 17.6 °F 15% 30.24 in - East 16.1 mph - N/A   Clear
1:00 PM 66.2 °F - 15.8 °F 14% 30.24 in - ESE 13.8 mph - N/A   Clear
1:30 PM 68.0 °F - 17.6 °F 15% 30.21 in - ESE 12.7 mph - N/A   Clear
2:00 PM 69.8 °F - 17.6 °F 14% 30.21 in - SE 15.0 mph - N/A   Clear
2:30 PM 69 °F - 14 °F 5% 30.19 in - ESE 13.8 mph - -  
2:30 PM 69.8 °F - 14.0 °F 12% 30.21 in - ESE 13.8 mph - N/A   Clear
3:00 PM 69 °F - 16 °F 6% 30.18 in - ESE 15.0 mph - -   Clear
3:30 PM 68.0 °F - 15.8 °F 13% 30.18 in - SE 10.4 mph - N/A   Clear
4:00 PM 69.8 °F - 14.0 °F 12% 30.18 in - ESE 11.5 mph - N/A   Clear
4:30 PM 68.0 °F - 14.0 °F 12% 30.18 in 6.2 mi SE 11.5 mph - N/A   Unknown
5:30 PM 67 °F - 15 °F 6% 30.18 in - ESE 11.5 mph - -  
5:30 PM 68.0 °F - 14.0 °F 12% 30.18 in 6.2 mi ESE 11.5 mph - N/A   Unknown
6:00 PM 66 °F - 16 °F 6% 30.18 in - SE 9.2 mph - -   Clear
6:00 PM 66.2 °F - 15.8 °F 14% 30.18 in 6.2 mi SE 9.2 mph - N/A   Unknown
6:30 PM 64 °F - 15 °F 7% 30.18 in - SE 8.1 mph - -  
6:30 PM 64.4 °F - 15.8 °F 15% 30.18 in 6.2 mi SE 8.1 mph - N/A   Unknown
7:00 PM 60.8 °F - 15.8 °F 17% 30.21 in 6.2 mi SSE 8.1 mph - N/A   Unknown
7:30 PM 57.2 °F - 15.8 °F 20% 30.21 in 6.2 mi SE 8.1 mph - N/A   Unknown
8:30 PM 54 °F - 14 °F 10% 30.23 in - SE 5.8 mph - -  
8:30 PM 53.6 °F - 14.0 °F 21% 30.24 in 6.2 mi SE 5.8 mph - N/A   Unknown
9:00 PM 52 °F - 15 °F 12% 30.24 in - SE 4.6 mph - -   Clear
9:00 PM 51.8 °F - 14.0 °F 22% 30.24 in 6.2 mi SE 4.6 mph - N/A   Unknown
9:30 PM 52 °F - 15 °F 12% 30.25 in - SE 5.8 mph - -  
9:30 PM 51.8 °F - 15.8 °F 24% 30.24 in 6.2 mi SE 5.8 mph - N/A   Unknown
10:00 PM 50.0 °F - 15.8 °F 26% 30.24 in 6.2 mi Calm Calm - N/A   Unknown
10:30 PM 46.4 °F - 14.0 °F 27% 30.24 in 6.2 mi Calm Calm - N/A   Unknown
11:00 PM 46.4 °F 44.3 °F 14.0 °F 27% 30.24 in 6.2 mi ENE 4.6 mph - N/A   Unknown
11:30 PM 46 °F - 17 °F 19% 30.23 in - Calm Calm - -  
11:30 PM 46.4 °F - 17.6 °F 32% 30.24 in 6.2 mi Calm Calm - N/A   Unknown